BCS2210 EDDP-EGSS

Flight info

Callsign BCS2210
Flight time N/A
Altitude 36000
Route PENEM1E PENEM Y233 EMBOX L986 POVEL DCT NIGUG DCT NOGRO M40 RINIS
Aircraft B752/M-SDE2E3FGHIJ3J4J7RWXY/LB1

Departure

Time 2026-05-05 19:08
Airport Leipzig/Halle Airport (EDDP)

Arrival

Time N/A
Airport London Stansted Airport (EGSS)
Time Latitude Longitude Altitude Speed Heading
2026-05-05 18:27 51.40818 12.20186 421 ft 0 kts 175°
2026-05-05 18:58 51.40826 12.20185 421 ft 2 kts 175°
2026-05-05 18:58 51.40841 12.20183 420 ft 2 kts 175°
2026-05-05 18:59 51.40850 12.20182 420 ft 2 kts 175°
2026-05-05 18:59 51.40865 12.20177 420 ft 2 kts 159°
2026-05-05 18:59 51.40879 12.20167 419 ft 2 kts 147°
2026-05-05 18:59 51.40890 12.20152 419 ft 2 kts 134°
2026-05-05 19:00 51.40900 12.20134 418 ft 2 kts 122°
2026-05-05 19:00 51.40907 12.20113 418 ft 2 kts 109°
2026-05-05 19:00 51.40910 12.20089 417 ft 2 kts 95°
2026-05-05 19:00 51.40910 12.20072 417 ft 0 kts 86°
2026-05-05 19:01 51.40910 12.20064 417 ft 0 kts 85°
2026-05-05 19:04 51.40911 12.20081 417 ft 2 kts 85°
2026-05-05 19:04 51.40913 12.20119 418 ft 4 kts 85°
2026-05-05 19:05 51.40916 12.20167 419 ft 4 kts 85°
2026-05-05 19:05 51.40919 12.20229 419 ft 6 kts 85°
2026-05-05 19:05 51.40922 12.20297 420 ft 5 kts 85°
2026-05-05 19:05 51.40925 12.20357 421 ft 5 kts 84°
2026-05-05 19:06 51.40937 12.20416 422 ft 2 kts 54°
2026-05-05 19:06 51.40974 12.20447 423 ft 7 kts 13°
2026-05-05 19:06 51.41034 12.20471 422 ft 10 kts 14°
2026-05-05 19:06 51.41106 12.20502 422 ft 11 kts 15°
2026-05-05 19:07 51.41164 12.20563 422 ft 8 kts 68°
2026-05-05 19:07 51.41170 12.20665 424 ft 17 kts 85°
2026-05-05 19:07 51.41198 12.21255 435 ft 89 kts 85°
2026-05-05 19:07 51.41263 12.22621 473 ft 154 kts 84°
2026-05-05 19:08 51.41364 12.24472 902 ft 180 kts 83°
2026-05-05 19:08 51.41469 12.26461 1912 ft 180 kts 82°
2026-05-05 19:08 51.41604 12.28428 2687 ft 189 kts 81°
2026-05-05 19:08 51.41732 12.30601 3299 ft 206 kts 83°
2026-05-05 19:09 51.41846 12.32919 4084 ft 214 kts 84°
2026-05-05 19:09 51.41952 12.35293 4919 ft 220 kts 84°
2026-05-05 19:09 51.42052 12.37736 5791 ft 224 kts 85°
2026-05-05 19:09 51.42190 12.40208 6613 ft 229 kts 76°
2026-05-05 19:10 51.42923 12.42507 6999 ft 242 kts 47°
2026-05-05 19:10 51.44308 12.43953 6986 ft 237 kts 16°
2026-05-05 19:10 51.45909 12.43984 6988 ft 231 kts 343°
2026-05-05 19:10 51.47366 12.42890 6987 ft 233 kts 335°
2026-05-05 19:11 51.48863 12.41873 6967 ft 234 kts 340°
2026-05-05 19:11 51.50419 12.40992 7087 ft 245 kts 342°
2026-05-05 19:11 51.51997 12.40195 8164 ft 236 kts 343°
2026-05-05 19:11 51.53574 12.39444 8888 ft 246 kts 343°
2026-05-05 19:12 51.55276 12.38591 9345 ft 267 kts 334°
2026-05-05 19:12 51.56749 12.36733 10008 ft 276 kts 303°
2026-05-05 19:12 51.57500 12.34067 11297 ft 261 kts 289°
2026-05-05 19:12 51.58103 12.31348 11996 ft 267 kts 289°
2026-05-05 19:13 51.58732 12.28541 11949 ft 262 kts 289°
2026-05-05 19:13 51.59321 12.25868 11963 ft 247 kts 289°
2026-05-05 19:13 51.59886 12.23277 11987 ft 247 kts 288°
2026-05-05 19:13 51.60467 12.20651 11982 ft 252 kts 294°
2026-05-05 19:14 51.61506 12.18419 12014 ft 253 kts 322°
2026-05-05 19:14 51.62969 12.16830 11997 ft 256 kts 326°
2026-05-05 19:14 51.64447 12.15269 11972 ft 253 kts 326°
2026-05-05 19:14 51.65914 12.13738 11979 ft 251 kts 326°
2026-05-05 19:15 51.67388 12.12216 11986 ft 253 kts 326°
2026-05-05 19:15 51.68871 12.10691 11984 ft 252 kts 326°
2026-05-05 19:15 51.70354 12.09166 11991 ft 263 kts 325°
2026-05-05 19:15 51.71799 12.07098 12030 ft 295 kts 312°
2026-05-05 19:16 51.73217 12.04621 11982 ft 302 kts 312°
2026-05-05 19:16 51.74652 12.02127 11999 ft 314 kts 312°
2026-05-05 19:16 51.76187 11.99433 12294 ft 337 kts 312°
2026-05-05 19:16 51.77804 11.96573 12702 ft 356 kts 311°
2026-05-05 19:17 51.79484 11.93560 13342 ft 366 kts 311°
2026-05-05 19:17 51.81191 11.90516 14156 ft 370 kts 311°
2026-05-05 19:17 51.82917 11.87442 14965 ft 374 kts 311°
2026-05-05 19:17 51.84658 11.84330 15733 ft 378 kts 309°
2026-05-05 19:18 51.86220 11.80920 16444 ft 381 kts 303°
2026-05-05 19:18 51.87725 11.77400 17200 ft 384 kts 303°
2026-05-05 19:18 51.89239 11.73858 17915 ft 388 kts 303°
2026-05-05 19:18 51.90776 11.70275 18624 ft 391 kts 303°
2026-05-05 19:19 51.92328 11.66650 19266 ft 396 kts 302°
2026-05-05 19:19 51.93897 11.62971 19896 ft 401 kts 302°
2026-05-05 19:19 51.95476 11.59254 20548 ft 404 kts 302°
2026-05-05 19:19 51.97068 11.55500 21210 ft 408 kts 302°
2026-05-05 19:20 51.98673 11.51704 21788 ft 413 kts 302°
2026-05-05 19:20 52.00294 11.47866 22386 ft 417 kts 301°
2026-05-05 19:20 52.01930 11.43981 22968 ft 421 kts 301°
2026-05-05 19:20 52.03578 11.40067 23599 ft 423 kts 301°
2026-05-05 19:21 52.05069 11.35974 24145 ft 423 kts 292°
2026-05-05 19:21 52.06089 11.31511 24744 ft 422 kts 282°
2026-05-05 19:21 52.06785 11.26896 25302 ft 424 kts 280°
2026-05-05 19:21 52.07462 11.22243 25855 ft 427 kts 279°
2026-05-05 19:22 52.08131 11.17539 26370 ft 430 kts 279°
2026-05-05 19:22 52.08797 11.12810 26908 ft 433 kts 279°
2026-05-05 19:22 52.09457 11.08054 27487 ft 434 kts 278°
2026-05-05 19:22 52.10115 11.03254 27941 ft 438 kts 278°
2026-05-05 19:23 52.10772 10.98433 28450 ft 440 kts 278°
2026-05-05 19:23 52.11430 10.93573 28841 ft 444 kts 278°
2026-05-05 19:23 52.12086 10.88697 29331 ft 445 kts 278°
2026-05-05 19:23 52.12679 10.83748 29673 ft 447 kts 273°
2026-05-05 19:24 52.12854 10.78755 30166 ft 443 kts 267°
2026-05-05 19:24 52.12907 10.73750 30557 ft 446 kts 267°
2026-05-05 19:24 52.12960 10.68692 30885 ft 450 kts 266°
2026-05-05 19:24 52.13005 10.63621 31361 ft 450 kts 266°
2026-05-05 19:25 52.13044 10.58544 31851 ft 450 kts 266°
2026-05-05 19:25 52.13079 10.53502 32437 ft 447 kts 266°
2026-05-05 19:25 52.13109 10.48469 32875 ft 447 kts 266°
2026-05-05 19:25 52.13137 10.43441 33459 ft 444 kts 266°
2026-05-05 19:26 52.13161 10.38451 33869 ft 444 kts 266°
2026-05-05 19:26 52.13182 10.33435 34197 ft 445 kts 265°
2026-05-05 19:26 52.13202 10.28441 34757 ft 441 kts 265°
2026-05-05 19:26 52.13219 10.23479 35125 ft 441 kts 265°
2026-05-05 19:27 52.13233 10.18510 35369 ft 441 kts 265°
2026-05-05 19:27 52.13245 10.13536 35591 ft 442 kts 265°
2026-05-05 19:27 52.13256 10.08572 35900 ft 440 kts 265°
2026-05-05 19:27 52.13265 10.03638 35991 ft 437 kts 265°
2026-05-05 19:28 52.13276 9.93770 35898 ft 433 kts 265°
2026-05-05 19:28 52.13282 9.88976 35792 ft 420 kts 265°
2026-05-05 19:28 52.13280 9.84222 35819 ft 424 kts 265°
2026-05-05 19:29 52.13296 9.74543 35820 ft 435 kts 265°
2026-05-05 19:29 52.13310 9.64647 35815 ft 442 kts 265°
2026-05-05 19:30 52.13312 9.54694 35819 ft 441 kts 265°
2026-05-05 19:30 52.13291 9.44769 35829 ft 440 kts 265°
2026-05-05 19:31 52.13255 9.34789 35826 ft 443 kts 264°
2026-05-05 19:31 52.13225 9.24812 35822 ft 441 kts 264°
2026-05-05 19:32 52.13189 9.14845 35835 ft 441 kts 264°
2026-05-05 19:32 52.13132 9.04884 35835 ft 442 kts 265°
2026-05-05 19:33 52.13062 8.94902 35827 ft 443 kts 264°
2026-05-05 19:33 52.12954 8.84929 35831 ft 443 kts 264°
2026-05-05 19:34 52.12813 8.74940 35827 ft 442 kts 264°
2026-05-05 19:35 52.12622 8.59947 35825 ft 444 kts 265°
2026-05-05 19:35 52.12531 8.49925 35821 ft 445 kts 265°
2026-05-05 19:36 52.12419 8.39894 35819 ft 446 kts 265°
2026-05-05 19:36 52.12306 8.29833 35823 ft 446 kts 264°
2026-05-05 19:37 52.12212 8.19812 35825 ft 444 kts 263°
2026-05-05 19:37 52.12006 8.09778 35821 ft 447 kts 264°
2026-05-05 19:38 52.11828 7.99724 35828 ft 446 kts 264°
2026-05-05 19:38 52.11657 7.89685 35825 ft 446 kts 264°
2026-05-05 19:39 52.11482 7.79612 35837 ft 447 kts 264°
2026-05-05 19:39 52.11311 7.69545 35838 ft 448 kts 265°
2026-05-05 19:40 52.11144 7.59487 35836 ft 447 kts 264°
2026-05-05 19:40 52.10927 7.49408 35832 ft 449 kts 264°
2026-05-05 19:41 52.10713 7.39321 35830 ft 447 kts 264°
2026-05-05 19:41 52.10508 7.29236 35833 ft 448 kts 263°
2026-05-05 19:42 52.10276 7.19144 35830 ft 448 kts 263°
2026-05-05 19:42 52.10043 7.09066 35843 ft 447 kts 263°
2026-05-05 19:43 52.09800 6.99002 35844 ft 448 kts 263°
2026-05-05 19:43 52.09565 6.88882 35843 ft 449 kts 264°
2026-05-05 19:44 52.09331 6.78759 35841 ft 449 kts 264°
2026-05-05 19:44 52.09095 6.68661 35852 ft 449 kts 263°
2026-05-05 19:45 52.08804 6.58577 35857 ft 448 kts 263°
2026-05-05 19:45 52.08484 6.48492 35864 ft 448 kts 263°
2026-05-05 19:46 52.08179 6.38410 35859 ft 448 kts 263°
2026-05-05 19:46 52.07871 6.28276 35866 ft 448 kts 262°
2026-05-05 19:47 52.07560 6.18210 35871 ft 448 kts 262°
2026-05-05 19:47 52.07242 6.08135 35874 ft 448 kts 262°
2026-05-05 19:48 52.06914 5.98042 35882 ft 449 kts 262°
2026-05-05 19:48 52.06579 5.87978 35885 ft 447 kts 262°
2026-05-05 19:49 52.06234 5.77913 35883 ft 449 kts 263°
2026-05-05 19:49 52.05882 5.67837 35880 ft 448 kts 263°
2026-05-05 19:50 52.05520 5.57760 35879 ft 448 kts 263°
2026-05-05 19:50 52.05151 5.47703 35877 ft 448 kts 263°
2026-05-05 19:51 52.04772 5.37614 35879 ft 450 kts 263°
2026-05-05 19:51 52.04400 5.27529 35885 ft 448 kts 264°
2026-05-05 19:52 52.04360 5.25846 35885 ft 448 kts 264°